Wind_Speed
43 42 43 46 57 74 89 96 95 92 89 85 82 79 75 74 75 74 73 72 71 70 68 65 62 60 58 56 54 51 49 47 46 46 47 48 48 46
41 40 40 40 46 59 77 90 95 94 91 88 85 83 78 73 72 73 72 71 71 71 69 67 64 62 60 59 56 54 52 50 48 48 47 48 47 46
39 38 37 37 39 47 61 79 91 94 93 89 87 85 82 77 72 69 68 69 70 70 70 69 67 65 63 62 60 58 56 54 53 52 51 49 48 48
38 37 35 34 35 39 48 64 79 90 92 91 88 86 84 81 76 72 68 67 68 68 68 68 67 65 64 64 63 61 59 57 56 55 54 52 51 50
37 36 35 34 34 36 41 52 65 78 87 89 88 87 85 83 80 76 73 69 68 67 66 66 66 65 64 64 63 61 60 58 58 57 56 55 54 53
37 37 36 34 34 35 38 44 53 64 75 83 85 85 85 84 82 78 75 72 69 68 66 65 64 64 64 63 63 62 61 60 59 58 57 56 55 55
37 37 37 36 35 35 36 39 44 52 62 71 77 80 82 82 81 78 76 73 71 68 66 66 64 63 63 63 63 63 62 61 60 59 58 57 56 56
37 38 38 37 36 35 35 36 39 44 51 59 65 71 76 78 79 77 76 74 72 70 67 66 64 63 61 61 61 61 63 63 63 62 61 60 59 58
38 38 38 38 37 36 35 36 37 40 44 50 56 62 67 73 74 74 74 73 71 70 67 65 64 63 62 61 60 60 61 61 62 63 63 62 62 61
39 39 39 39 38 36 36 36 36 37 39 43 47 52 57 62 66 69 69 69 68 68 67 65 65 63 62 62 62 61 60 59 59 58 58 59 59 60
38 40 40 39 39 37 37 36 36 35 37 38 41 45 50 54 58 62 64 63 63 64 64 64 64 64 63 62 62 62 61 61 60 59 59 60 60 61
36 40 41 41 40 39 37 36 34 34 34 34 36 39 45 50 55 59 61 60 60 61 62 63 64 64 64 64 64 64 64 64 64 63 63 63 64 63
33 39 42 42 41 40 38 36 35 33 31 31 32 33 38 45 50 54 59 58 58 59 60 63 63 64 64 65 65 65 65 65 66 67 68 69 70 70
29 36 41 44 43 42 41 39 37 35 33 32 32 32 35 41 45 51 56 56 56 57 59 62 62 62 63 63 65 67 68 70 70 70 70 71 72 71
26 33 39 44 45 45 44 42 40 38 36 36 35 36 39 41 45 50 54 54 55 57 58 59 60 61 62 63 64 66 69 70 70 70 70 71 71 71
22 29 37 43 46 47 47 45 43 42 40 39 39 40 43 44 46 49 52 53 55 56 55 54 55 56 56 58 60 61 63 64 65 66 66 67 67 67
17 25 33 40 45 48 49 48 47 45 44 42 42 43 45 46 47 50 53 53 53 53 52 51 49 48 49 49 51 52 54 55 55 56 56 57 58 59
12 19 27 36 42 47 49 50 50 49 48 46 45 45 47 48 47 48 50 51 51 50 50 50 49 47 46 46 47 47 47 48 49 50 50 49 49 49
8 13 21 30 38 44 48 51 51 51 50 49 47 47 48 48 48 48 48 49 49 50 50 50 50 49 49 48 47 47 46 46 46 46 46 45 45 45
7 9 15 23 32 40 46 49 51 52 52 52 51 49 49 49 48 48 48 48 49 49 50 51 51 51 51 50 49 48 48 47 46 46 45 45 45 46
9 7 10 16 24 34 41 47 50 51 52 53 52 52 51 50 50 49 49 49 49 50 50 50 51 51 51 51 50 49 49 47 46 45 45 45 45 46
23 11 7 9 16 25 34 42 47 50 51 51 52 53 52 52 52 51 51 50 50 51 51 51 52 52 52 51 51 50 49 47 46 45 44 44 44 44
42 29 15 6 8 15 24 34 42 47 50 51 51 51 52 52 53 53 53 53 53 52 52 52 53 54 53 52 51 50 48 47 46 44 43 43 43 43
Wind_Direction
245 248 249 245 237 229 224 219 217 217 218 218 219 221 222 224 226 226 226 225 226 227 228 229 230 230 231 233 235 236 238 240 240 240 239 237 236 236
242 244 246 245 239 231 226 221 217 216 216 217 218 219 220 222 224 225 226 226 226 227 228 229 230 231 232 233 235 236 238 240 241 242 241 239 238 237
238 240 241 242 239 232 227 223 219 216 215 216 218 219 219 220 221 223 225 226 227 228 228 229 229 230 232 234 235 236 238 239 240 240 240 239 238 238
234 235 236 236 236 231 226 223 221 218 215 215 217 219 220 220 220 221 223 225 227 228 229 229 229 229 231 233 236 237 238 239 239 239 240 240 239 239
229 229 230 230 230 227 224 222 221 220 217 216 217 219 220 220 221 221 223 225 227 228 229 230 230 230 230 231 234 236 237 238 239 239 239 240 241 241
222 223 224 224 224 223 222 219 218 219 219 218 218 219 220 222 222 222 223 225 226 227 229 229 230 230 231 231 233 234 236 237 238 239 239 239 240 242
217 218 219 220 220 220 218 215 214 215 217 219 219 219 221 222 223 223 225 226 227 228 229 229 230 231 232 232 233 234 235 237 238 239 239 240 241 242
212 213 215 216 217 216 215 212 210 211 213 216 218 219 220 221 223 224 225 226 228 228 229 231 231 231 232 232 233 234 235 237 238 239 240 242 243 245
208 209 211 213 214 214 212 210 209 208 210 212 215 217 219 221 222 224 225 227 229 230 231 232 232 233 233 233 233 234 235 236 238 240 241 243 245 246
206 206 207 209 211 211 211 210 208 208 208 209 212 214 217 219 222 224 225 227 229 231 232 233 234 235 235 236 236 236 236 237 238 240 241 242 242 244
205 204 205 207 208 209 209 209 209 209 209 211 211 211 211 213 216 219 220 222 224 227 230 231 233 234 235 236 237 237 237 238 238 239 238 238 239 241
206 204 204 205 206 207 208 208 208 209 211 211 211 210 209 208 209 211 212 214 218 222 224 227 230 232 232 233 234 236 236 237 238 238 237 238 240 242
209 205 204 203 205 206 206 206 206 208 209 207 206 206 205 204 205 206 205 207 212 217 220 222 224 227 228 230 231 232 233 234 236 236 237 238 240 242
214 209 206 204 204 205 205 205 204 204 205 203 203 202 198 198 199 200 200 203 208 214 218 220 221 222 224 226 227 228 228 229 231 232 233 235 238 241
218 213 210 207 205 205 205 205 204 203 203 202 200 197 195 194 194 195 197 200 205 209 213 217 218 220 222 224 225 227 229 231 233 235 236 238 241 243
224 218 214 211 208 207 206 205 205 203 203 203 201 198 195 194 194 195 196 199 202 206 209 212 216 218 221 224 226 228 231 233 236 239 241 243 245 248
230 224 219 215 212 210 209 207 206 205 204 204 204 202 200 198 197 196 197 196 198 201 204 207 209 213 217 221 225 229 233 235 238 241 244 247 249 252
240 229 224 219 217 214 212 211 209 208 207 206 206 206 206 206 205 202 200 200 200 201 205 208 211 214 219 222 225 228 232 234 237 239 242 245 248 251
259 238 228 223 220 217 215 214 212 211 210 208 208 208 209 210 211 211 209 208 208 208 209 211 213 215 218 221 223 226 228 231 233 236 239 242 246 250
290 258 237 227 222 219 218 217 216 214 213 212 212 211 211 212 213 214 214 214 214 214 215 216 218 220 221 222 224 226 228 231 234 237 242 246 250 254
339 289 256 235 226 222 219 219 218 217 216 215 215 215 214 214 214 215 216 216 217 217 218 219 220 222 223 224 226 227 229 232 236 241 245 250 254 257
24 1 298 256 235 225 221 220 219 219 219 218 218 218 218 218 217 217 218 218 219 220 221 222 223 224 225 226 228 229 231 234 238 243 247 251 255 256
31 28 19 328 260 236 225 221 220 220 220 220 220 220 220 221 221 221 221 220 220 221 222 223 224 225 226 228 229 231 233 236 239 243 247 250 253 253
Height
5419 5422 5426 5429 5433 5443 5458 5476 5496 5511 5529 5547 5562 5576 5588 5601 5612 5624 5635 5647 5657 5667 5676 5686 5695 5705 5713 5720 5727 5734 5740 5747 5754 5760 5766 5771 5776 5782
5405 5409 5413 5416 5420 5427 5438 5454 5472 5492 5510 5528 5543 5557 5571 5585 5597 5609 5620 5631 5641 5652 5662 5672 5682 5692 5700 5708 5716 5723 5730 5736 5742 5748 5754 5760 5765 5771
5392 5397 5401 5405 5409 5414 5423 5435 5452 5471 5492 5511 5524 5539 5555 5569 5582 5594 5605 5616 5627 5637 5648 5658 5668 5678 5687 5695 5703 5710 5718 5724 5730 5736 5742 5748 5754 5760
5380 5386 5391 5396 5400 5405 5411 5421 5435 5453 5474 5493 5508 5523 5538 5554 5567 5579 5590 5602 5612 5622 5633 5644 5655 5665 5674 5682 5690 5698 5705 5712 5718 5724 5730 5737 5743 5748
5369 5375 5381 5387 5392 5397 5402 5411 5423 5439 5457 5476 5493 5507 5522 5537 5551 5564 5575 5587 5598 5608 5619 5630 5641 5651 5660 5669 5677 5685 5692 5700 5705 5711 5717 5724 5731 5737
5358 5365 5372 5378 5384 5389 5395 5403 5413 5427 5443 5460 5477 5492 5507 5521 5534 5549 5561 5573 5583 5594 5605 5616 5627 5637 5647 5656 5666 5672 5679 5685 5692 5698 5705 5712 5718 5725
5348 5356 5363 5370 5376 5383 5389 5397 5406 5417 5431 5446 5462 5476 5491 5504 5521 5535 5546 5557 5568 5579 5591 5602 5615 5625 5633 5642 5650 5658 5666 5673 5679 5686 5692 5699 5706 5712
5338 5347 5355 5363 5370 5377 5384 5391 5399 5409 5421 5434 5448 5462 5475 5490 5504 5517 5530 5543 5555 5568 5578 5588 5600 5610 5620 5629 5637 5645 5653 5660 5667 5674 5681 5687 5693 5700
5330 5338 5347 5355 5363 5371 5378 5386 5394 5403 5413 5424 5436 5448 5461 5476 5491 5506 5517 5528 5541 5554 5566 5575 5586 5596 5606 5615 5623 5632 5640 5648 5655 5661 5668 5675 5681 5687
5322 5331 5340 5348 5357 5365 5373 5381 5389 5397 5406 5416 5427 5439 5450 5463 5477 5491 5503 5516 5528 5538 5551 5561 5571 5582 5593 5602 5610 5619 5627 5634 5642 5649 5655 5662 5667 5673
5315 5324 5333 5342 5350 5359 5367 5375 5384 5391 5399 5408 5417 5427 5439 5452 5464 5476 5489 5501 5512 5523 5535 5547 5557 5568 5578 5587 5596 5605 5614 5621 5629 5636 5642 5648 5653 5659
5310 5318 5327 5335 5344 5352 5361 5370 5378 5386 5393 5401 5409 5418 5428 5439 5450 5462 5475 5488 5500 5510 5522 5533 5542 5553 5563 5571 5581 5590 5600 5608 5615 5622 5629 5635 5640 5644
5305 5313 5321 5329 5338 5347 5355 5364 5372 5380 5388 5396 5403 5411 5419 5429 5439 5451 5464 5477 5489 5500 5510 5521 5530 5540 5550 5559 5567 5576 5585 5592 5599 5606 5613 5619 5625 5630
5301 5308 5315 5323 5332 5341 5350 5358 5367 5375 5383 5391 5398 5405 5413 5423 5432 5443 5455 5467 5478 5489 5499 5509 5519 5529 5539 5546 5554 5562 5570 5576 5583 5589 5597 5603 5609 5615
5297 5303 5310 5318 5326 5335 5344 5352 5361 5370 5378 5386 5393 5401 5409 5418 5427 5437 5448 5458 5469 5478 5487 5496 5506 5514 5523 5532 5540 5547 5554 5561 5567 5574 5581 5588 5594 5600
5294 5299 5305 5312 5320 5329 5338 5346 5355 5364 5372 5380 5389 5397 5405 5413 5422 5431 5441 5450 5459 5467 5476 5484 5492 5501 5509 5518 5526 5533 5540 5548 5555 5562 5568 5575 5581 5587
5292 5295 5301 5307 5314 5323 5331 5340 5349 5358 5366 5375 5383 5391 5400 5408 5416 5424 5434 5442 5450 5458 5466 5475 5482 5490 5498 5506 5514 5523 5531 5539 5545 5551 5557 5563 5569 5575
5289 5292 5296 5301 5308 5316 5324 5333 5342 5351 5359 5368 5376 5385 5393 5402 5410 5418 5426 5434 5442 5450 5458 5466 5474 5482 5490 5498 5506 5514 5522 5529 5535 5541 5548 5554 5560 5564
5287 5288 5291 5295 5301 5309 5317 5325 5334 5343 5352 5361 5369 5378 5386 5395 5403 5411 5419 5427 5434 5442 5450 5458 5466 5474 5482 5490 5497 5505 5512 5519 5526 5532 5538 5544 5549 5552
5286 5286 5287 5290 5295 5301 5309 5318 5326 5335 5344 5353 5362 5370 5378 5387 5395 5403 5411 5419 5426 5434 5442 5449 5457 5465 5474 5482 5489 5496 5503 5510 5517 5522 5527 5532 5537 5541
5285 5285 5285 5287 5290 5295 5301 5309 5318 5327 5335 5344 5353 5361 5370 5378 5386 5394 5402 5410 5418 5425 5433 5441 5449 5457 5465 5473 5480 5487 5494 5500 5506 5512 5517 5521 5525 5529
5287 5285 5284 5284 5286 5289 5294 5301 5309 5318 5326 5335 5344 5352 5360 5369 5377 5385 5393 5401 5408 5416 5424 5432 5440 5448 5456 5463 5470 5477 5484 5490 5496 5501 5506 5511 5513 5517
5294 5288 5285 5284 5284 5286 5289 5294 5301 5309 5317 5325 5334 5342 5350 5359 5367 5375 5383 5391 5399 5407 5414 5422 5430 5438 5445 5453 5459 5466 5473 5480 5485 5491 5496 5499 5503 5506